When you browse on this site, cookies collect data to enhance your experience and personalize the content and advertising you see.
Visit our Privacy Policy to learn more. By continuing to use the site, you agree to this use of cookies and data.
  • In Spain
  • List of Countries
  • For 7 days
  • Water Temperature
  • Weather Map
  • Weather Widgets
  • user-avatar
    Login

    Hourly Weather Fier

    Today, 24 August, Saturday

    Time Temperature Precipitation Wind Pressure Humidity
    00:00 +26°C° 0.5 mm 2 mps 761 mmHg 65%
    01:00 +25°C° 0.5 mm 2 mps 761 mmHg 68%
    02:00 +25°C° 0.1 mm 2 mps 761 mmHg 66%
    03:00 +25°C° 0.1 mm 2 mps 761 mmHg 65%
    04:00 +25°C° 0.1 mm 2 mps 761 mmHg 64%
    05:00 +27°C° 0.2 mm 2 mps 761 mmHg 60%
    06:00 +28°C° 0.2 mm 2 mps 761 mmHg 55%
    07:00 +29°C° 0.2 mm 2 mps 761 mmHg 51%
    08:00 +32°C° 0.1 mm 2 mps 761 mmHg 44%
    09:00 +35°C° 0.1 mm 2 mps 761 mmHg 37%
    10:00 +38°C° 0.1 mm 2 mps 761 mmHg 30%
    11:00 +38°C° 0 mm 3 mps 761 mmHg 30%
    12:00 +38°C° 0 mm 4 mps 760 mmHg 29%
    13:00 +39°C° 0 mm 5 mps 760 mmHg 29%
    14:00 +38°C° 0 mm 4 mps 760 mmHg 31%
    15:00 +37°C° 0 mm 4 mps 760 mmHg 34%
    16:00 +36°C° 0 mm 4 mps 760 mmHg 36%
    17:00 +35°C° 0 mm 4 mps 760 mmHg 40%
    18:00 +33°C° 0 mm 3 mps 760 mmHg 43%
    19:00 +31°C° 0 mm 3 mps 760 mmHg 47%
    20:00 +30°C° 0 mm 3 mps 760 mmHg 48%
    21:00 +30°C° 0 mm 2 mps 760 mmHg 49%
    22:00 +29°C° 0 mm 2 mps 760 mmHg 50%
    23:00 +29°C° 0 mm 2 mps 760 mmHg 50%

    Tomorrow, 25 August, Sunday

    Time Temperature Precipitation Wind Pressure Humidity
    00:00 +28°C° 0 mm 2 mps 760 mmHg 49%
    01:00 +28°C° 0 mm 2 mps 760 mmHg 49%
    02:00 +28°C° 0 mm 2 mps 760 mmHg 48%
    03:00 +27°C° 0 mm 2 mps 760 mmHg 47%
    04:00 +27°C° 0 mm 2 mps 760 mmHg 46%
    05:00 +28°C° 0 mm 2 mps 760 mmHg 41%
    06:00 +30°C° 0 mm 2 mps 760 mmHg 37%
    07:00 +31°C° 0 mm 2 mps 760 mmHg 33%
    08:00 +34°C° 0 mm 2 mps 760 mmHg 30%
    09:00 +36°C° 0 mm 2 mps 760 mmHg 26%
    10:00 +38°C° 0 mm 2 mps 760 mmHg 23%
    11:00 +38°C° 0 mm 3 mps 759 mmHg 25%
    12:00 +39°C° 0 mm 5 mps 759 mmHg 27%
    13:00 +39°C° 0 mm 6 mps 759 mmHg 29%
    14:00 +38°C° 0 mm 6 mps 759 mmHg 31%
    15:00 +37°C° 0 mm 5 mps 758 mmHg 34%
    16:00 +36°C° 0 mm 4 mps 758 mmHg 36%
    17:00 +34°C° 0 mm 4 mps 758 mmHg 44%
    18:00 +31°C° 0 mm 3 mps 759 mmHg 52%
    19:00 +29°C° 0 mm 2 mps 759 mmHg 60%
    20:00 +28°C° 0 mm 2 mps 759 mmHg 63%
    21:00 +28°C° 0 mm 2 mps 760 mmHg 66%
    22:00 +28°C° 0 mm 2 mps 760 mmHg 69%
    23:00 +27°C° 0 mm 2 mps 760 mmHg 70%

    Day after tomorrow, 26 August, Monday

    Time Temperature Precipitation Wind Pressure Humidity
    00:00 +27°C° 0 mm 2 mps 760 mmHg 71%
    01:00 +26°C° 0 mm 2 mps 759 mmHg 71%
    02:00 +26°C° 0 mm 2 mps 759 mmHg 66%
    03:00 +27°C° 0 mm 2 mps 759 mmHg 60%
    04:00 +27°C° 0 mm 2 mps 759 mmHg 55%
    05:00 +28°C° 0.1 mm 2 mps 759 mmHg 50%
    06:00 +29°C° 0.1 mm 2 mps 759 mmHg 46%
    07:00 +30°C° 0.1 mm 2 mps 760 mmHg 41%
    08:00 +32°C° 0 mm 2 mps 760 mmHg 36%
    09:00 +35°C° 0 mm 2 mps 760 mmHg 31%
    10:00 +37°C° 0 mm 2 mps 760 mmHg 27%
    11:00 +37°C° 0 mm 3 mps 760 mmHg 28%
    12:00 +37°C° 0 mm 4 mps 760 mmHg 30%
    13:00 +38°C° 0 mm 6 mps 759 mmHg 31%
    14:00 +36°C° 0 mm 5 mps 759 mmHg 33%
    15:00 +36°C° 0 mm 4 mps 759 mmHg 36%
    16:00 +35°C° 0 mm 4 mps 759 mmHg 38%
    17:00 +33°C° 0 mm 3 mps 759 mmHg 43%
    18:00 +31°C° 0 mm 2 mps 760 mmHg 48%
    19:00 +29°C° 0 mm 2 mps 760 mmHg 52%
    20:00 +29°C° 0 mm 2 mps 760 mmHg 51%
    21:00 +29°C° 0 mm 2 mps 760 mmHg 49%
    22:00 +29°C° 0 mm 2 mps 760 mmHg 47%
    23:00 +29°C° 0 mm 2 mps 760 mmHg 46%

    27 August, Tuesday

    Time Temperature Precipitation Wind Pressure Humidity
    00:00 +29°C° 0 mm 2 mps 760 mmHg 46%
    01:00 +29°C° 0 mm 2 mps 760 mmHg 45%
    02:00 +28°C° 0 mm 2 mps 760 mmHg 45%
    03:00 +28°C° 0 mm 2 mps 760 mmHg 45%
    04:00 +28°C° 0 mm 2 mps 760 mmHg 46%
    05:00 +29°C° 0 mm 2 mps 760 mmHg 44%
    06:00 +29°C° 0 mm 1 mps 760 mmHg 42%
    07:00 +30°C° 0 mm 1 mps 761 mmHg 40%
    08:00 +32°C° 0.1 mm 1 mps 761 mmHg 36%
    09:00 +35°C° 0.1 mm 2 mps 761 mmHg 32%
    10:00 +37°C° 0.1 mm 2 mps 761 mmHg 28%
    11:00 +37°C° 0 mm 3 mps 761 mmHg 29%
    12:00 +37°C° 0 mm 4 mps 760 mmHg 29%
    13:00 +37°C° 0 mm 5 mps 760 mmHg 30%
    14:00 +36°C° 0.1 mm 5 mps 760 mmHg 35%
    15:00 +34°C° 0.1 mm 4 mps 760 mmHg 41%
    16:00 +31°C° 0.1 mm 3 mps 760 mmHg 46%
    17:00 +30°C° 0 mm 3 mps 760 mmHg 51%
    18:00 +28°C° 0 mm 3 mps 761 mmHg 56%
    19:00 +27°C° 0 mm 3 mps 761 mmHg 62%
    20:00 +26°C° 0 mm 3 mps 761 mmHg 62%
    21:00 +26°C° 0 mm 3 mps 761 mmHg 63%
    22:00 +26°C° 0 mm 2 mps 761 mmHg 63%
    23:00 +25°C° 0 mm 2 mps 761 mmHg 62%

    28 August, Wednesday

    Time Temperature Precipitation Wind Pressure Humidity
    00:00 +25°C° 0 mm 2 mps 761 mmHg 62%
    01:00 +25°C° 0 mm 2 mps 761 mmHg 61%
    02:00 +25°C° 0 mm 2 mps 760 mmHg 61%
    03:00 +25°C° 0 mm 2 mps 760 mmHg 60%
    04:00 +25°C° 0 mm 2 mps 760 mmHg 59%
    05:00 +26°C° 0 mm 2 mps 760 mmHg 55%
    06:00 +27°C° 0 mm 2 mps 760 mmHg 51%
    07:00 +28°C° 0 mm 1 mps 760 mmHg 47%
    08:00 +31°C° 0 mm 1 mps 760 mmHg 41%
    09:00 +33°C° 0 mm 1 mps 760 mmHg 35%
    10:00 +35°C° 0 mm 1 mps 760 mmHg 29%
    11:00 +37°C° 0 mm 3 mps 759 mmHg 30%
    12:00 +37°C° 0 mm 4 mps 759 mmHg 30%
    13:00 +37°C° 0 mm 5 mps 759 mmHg 30%
    14:00 +36°C° 0 mm 5 mps 759 mmHg 34%
    15:00 +35°C° 0 mm 4 mps 758 mmHg 37%
    16:00 +34°C° 0 mm 4 mps 758 mmHg 40%
    17:00 +33°C° 0 mm 3 mps 758 mmHg 46%
    18:00 +30°C° 0 mm 2 mps 758 mmHg 51%
    19:00 +29°C° 0 mm 1 mps 758 mmHg 56%
    20:00 +28°C° 0 mm 1 mps 758 mmHg 57%
    21:00 +28°C° 0 mm 1 mps 758 mmHg 59%
    22:00 +27°C° 0 mm 1 mps 759 mmHg 60%
    23:00 +27°C° 0 mm 1 mps 759 mmHg 60%

    29 August, Thursday

    Time Temperature Precipitation Wind Pressure Humidity
    00:00 +25°C° 0 mm 0 mps 758 mmHg 59%
    01:00 +25°C° 0 mm 0 mps 758 mmHg 58%
    02:00 +24°C° 0 mm 0 mps 758 mmHg 59%
    03:00 +24°C° 0 mm 0 mps 758 mmHg 59%
    04:00 +24°C° 0 mm 0 mps 758 mmHg 60%
    05:00 +27°C° 0 mm 1 mps 758 mmHg 55%
    06:00 +28°C° 0 mm 1 mps 758 mmHg 50%
    07:00 +30°C° 0 mm 1 mps 758 mmHg 44%
    08:00 +31°C° 0 mm 1 mps 758 mmHg 41%
    09:00 +34°C° 0 mm 2 mps 758 mmHg 37%
    10:00 +36°C° 0 mm 2 mps 758 mmHg 33%
    11:00 +36°C° 0 mm 3 mps 757 mmHg 33%
    12:00 +36°C° 0 mm 4 mps 757 mmHg 33%
    13:00 +36°C° 0 mm 5 mps 757 mmHg 34%
    14:00 +35°C° 0 mm 4 mps 757 mmHg 34%
    15:00 +35°C° 0 mm 3 mps 757 mmHg 35%
    16:00 +34°C° 0 mm 2 mps 756 mmHg 35%
    17:00 +31°C° 0 mm 2 mps 757 mmHg 42%
    18:00 +30°C° 0 mm 2 mps 757 mmHg 48%
    19:00 +28°C° 0 mm 2 mps 757 mmHg 54%
    20:00 +27°C° 0 mm 2 mps 757 mmHg 55%
    21:00 +27°C° 0 mm 1 mps 757 mmHg 56%
    22:00 +26°C° 0 mm 1 mps 757 mmHg 57%
    23:00 +26°C° 0 mm 1 mps 757 mmHg 58%
    Show more